Total_Precipitation_Accumulation
1.18 1.17 1.15 1.11 1.01 1.00 1.05 1.05 1.03 1.03 1.07 1.05 0.95 0.88 0.96 0.97 0.94 1.00 1.07 1.14 1.20 1.33 1.46 1.59 1.74 2.00 2.30 2.31 2.25 2.11 1.99 1.86 1.66 1.50 1.29 1.22 1.53 1.63 1.56 1.45 1.42 1.38 1.14
1.10 1.11 1.09 0.98 0.92 0.89 0.87 0.83 0.73 0.70 0.73 0.82 0.91 0.85 0.83 0.87 0.90 0.95 0.98 1.02 1.05 1.14 1.23 1.36 1.54 1.82 2.16 2.37 2.45 2.33 2.16 2.02 1.90 1.76 1.43 1.20 1.32 1.65 1.78 1.72 1.52 1.37 1.23
1.15 1.00 0.89 0.85 0.82 0.81 0.73 0.69 0.65 0.58 0.57 0.60 0.70 0.70 0.79 0.88 0.90 0.92 0.93 0.96 0.99 1.07 1.21 1.26 1.31 1.51 1.71 1.91 2.10 2.22 2.20 2.18 2.16 1.93 1.63 1.37 1.30 1.42 1.67 1.69 1.62 1.61 1.38
1.24 1.13 0.98 0.88 0.81 0.78 0.71 0.68 0.64 0.62 0.63 0.68 0.79 0.81 0.76 0.75 0.80 0.91 0.94 0.90 0.87 0.90 0.99 1.08 1.18 1.22 1.38 1.52 1.64 1.83 2.04 2.29 2.36 2.21 1.94 1.62 1.49 1.38 1.48 1.64 1.71 1.67 1.59
1.22 1.21 1.06 0.98 0.91 0.78 0.71 0.71 0.69 0.73 0.70 0.71 0.80 0.90 0.95 0.89 0.86 0.94 0.91 0.89 0.89 0.86 0.90 0.91 0.98 1.00 1.06 1.25 1.29 1.52 1.85 2.11 2.22 2.29 2.16 1.85 1.59 1.41 1.20 1.31 1.57 1.80 1.81
0.88 0.96 0.92 0.82 0.72 0.68 0.67 0.65 0.62 0.62 0.57 0.56 0.59 0.66 0.75 0.79 0.99 0.94 0.78 0.74 0.79 0.85 0.90 0.89 0.91 0.85 0.83 0.89 1.03 1.16 1.46 1.67 1.82 1.90 1.92 1.76 1.54 1.41 1.36 1.32 1.40 1.55 1.60
0.59 0.68 0.68 0.62 0.56 0.53 0.56 0.55 0.51 0.45 0.46 0.44 0.44 0.44 0.50 0.65 0.74 0.58 0.56 0.61 0.74 0.86 0.93 0.95 0.91 0.85 0.89 0.90 0.92 0.93 1.00 1.18 1.40 1.60 1.63 1.54 1.59 1.51 1.43 1.33 1.34 1.36 1.34
0.35 0.41 0.42 0.41 0.41 0.41 0.42 0.42 0.40 0.39 0.38 0.37 0.42 0.49 0.50 0.52 0.60 0.50 0.48 0.56 0.75 0.89 0.89 0.85 0.91 0.92 0.95 1.01 0.94 1.01 0.97 0.95 1.04 1.09 1.23 1.43 1.58 1.75 1.73 1.62 1.63 1.56 1.47
0.18 0.20 0.22 0.23 0.27 0.32 0.33 0.37 0.45 0.46 0.43 0.43 0.52 0.59 0.53 0.47 0.53 0.53 0.57 0.70 0.82 0.90 0.87 0.87 0.94 0.99 1.12 1.17 1.07 1.13 1.09 1.06 1.03 1.13 1.22 1.33 1.42 1.54 1.69 1.73 1.69 1.66 1.51
0.11 0.11 0.14 0.16 0.19 0.23 0.28 0.31 0.32 0.32 0.37 0.44 0.45 0.43 0.44 0.51 0.59 0.56 0.66 0.83 0.96 1.05 1.01 1.00 1.18 1.14 1.12 1.07 1.04 1.19 1.16 1.02 0.94 0.98 1.04 1.13 1.17 1.26 1.40 1.45 1.58 1.65 1.56
0.12 0.13 0.15 0.17 0.17 0.19 0.17 0.14 0.16 0.21 0.23 0.25 0.26 0.31 0.39 0.53 0.58 0.61 0.79 0.88 0.95 1.09 1.11 1.07 1.01 1.14 1.08 1.00 0.99 1.05 1.19 1.07 1.00 1.04 1.04 1.05 1.07 1.11 1.15 1.22 1.34 1.47 1.52
0.10 0.12 0.13 0.12 0.12 0.13 0.13 0.11 0.11 0.15 0.18 0.21 0.23 0.28 0.33 0.39 0.46 0.52 0.65 0.77 0.86 1.03 1.10 1.00 0.90 1.13 1.08 0.99 0.91 0.93 1.08 1.15 1.15 1.18 1.17 1.08 1.01 0.98 0.97 1.03 1.13 1.24 1.33
0.10 0.12 0.13 0.12 0.12 0.10 0.09 0.10 0.11 0.13 0.16 0.19 0.23 0.29 0.36 0.39 0.41 0.49 0.54 0.62 0.75 0.92 0.97 0.99 1.00 1.03 0.94 0.90 0.99 1.02 1.04 1.07 1.16 1.22 1.11 0.96 0.89 0.88 0.95 1.06 1.17 1.26 1.33
0.11 0.11 0.12 0.14 0.15 0.11 0.10 0.10 0.10 0.11 0.14 0.18 0.25 0.31 0.36 0.40 0.42 0.53 0.63 0.64 0.73 0.81 0.80 0.82 0.86 0.82 0.81 0.85 0.91 1.01 1.06 1.11 1.13 1.07 0.97 0.84 0.85 0.91 0.94 0.98 1.11 1.24 1.36
0.10 0.12 0.12 0.15 0.16 0.13 0.10 0.09 0.10 0.10 0.14 0.19 0.23 0.28 0.30 0.32 0.38 0.50 0.65 0.74 0.84 0.92 0.92 0.82 0.81 0.80 0.79 0.79 0.83 0.87 0.93 0.94 0.97 0.94 0.91 0.90 0.88 0.91 0.92 0.92 1.01 1.08 1.09
0.12 0.12 0.12 0.11 0.11 0.13 0.14 0.11 0.10 0.10 0.12 0.13 0.14 0.18 0.24 0.29 0.29 0.32 0.44 0.60 0.78 1.03 1.25 1.19 1.16 1.09 0.99 0.89 0.82 0.78 0.76 0.78 0.81 0.86 0.87 0.86 0.87 0.92 0.97 0.98 1.02 1.08 1.07
0.09 0.10 0.10 0.10 0.09 0.09 0.12 0.17 0.18 0.14 0.10 0.08 0.09 0.14 0.20 0.27 0.26 0.31 0.38 0.44 0.56 0.88 1.26 1.24 1.21 1.07 0.94 0.87 0.77 0.67 0.62 0.65 0.73 0.73 0.76 0.79 0.80 0.85 0.92 0.95 0.96 1.01 1.04
0.08 0.08 0.09 0.11 0.11 0.10 0.11 0.17 0.29 0.34 0.28 0.16 0.13 0.14 0.19 0.27 0.33 0.41 0.51 0.59 0.64 0.78 0.92 0.93 0.86 0.81 0.74 0.62 0.58 0.56 0.53 0.58 0.67 0.69 0.70 0.71 0.73 0.78 0.81 0.88 0.91 0.93 0.98
0.08 0.09 0.13 0.17 0.15 0.13 0.14 0.21 0.28 0.21 0.19 0.21 0.19 0.16 0.18 0.21 0.26 0.33 0.44 0.53 0.54 0.58 0.59 0.54 0.49 0.49 0.50 0.47 0.45 0.45 0.46 0.50 0.57 0.65 0.68 0.67 0.68 0.72 0.76 0.80 0.88 0.97 0.98
0.06 0.10 0.13 0.21 0.20 0.14 0.15 0.19 0.17 0.16 0.18 0.20 0.20 0.19 0.21 0.22 0.23 0.26 0.32 0.36 0.35 0.36 0.35 0.34 0.34 0.34 0.37 0.38 0.40 0.42 0.43 0.46 0.51 0.58 0.62 0.67 0.68 0.68 0.71 0.78 0.83 0.87 0.86
0.07 0.09 0.11 0.16 0.19 0.15 0.15 0.17 0.16 0.16 0.18 0.19 0.18 0.19 0.22 0.25 0.27 0.28 0.27 0.26 0.28 0.30 0.31 0.32 0.30 0.32 0.37 0.38 0.41 0.45 0.49 0.51 0.53 0.60 0.62 0.64 0.69 0.70 0.71 0.74 0.78 0.79 0.81
0.08 0.10 0.11 0.13 0.15 0.15 0.15 0.17 0.18 0.16 0.15 0.17 0.18 0.19 0.22 0.26 0.26 0.26 0.26 0.26 0.26 0.27 0.33 0.37 0.38 0.39 0.38 0.41 0.46 0.50 0.51 0.53 0.56 0.60 0.66 0.68 0.68 0.69 0.71 0.73 0.77 0.80 0.81
0.10 0.11 0.11 0.12 0.13 0.12 0.12 0.13 0.16 0.18 0.17 0.18 0.20 0.20 0.22 0.24 0.25 0.28 0.30 0.31 0.34 0.36 0.35 0.36 0.41 0.42 0.41 0.42 0.45 0.52 0.57 0.58 0.61 0.66 0.73 0.74 0.70 0.70 0.73 0.73 0.75 0.79 0.81
0.11 0.11 0.11 0.12 0.13 0.13 0.13 0.13 0.14 0.15 0.19 0.23 0.23 0.22 0.24 0.28 0.29 0.28 0.28 0.35 0.37 0.37 0.37 0.37 0.39 0.42 0.44 0.45 0.47 0.50 0.53 0.57 0.63 0.68 0.73 0.78 0.77 0.74 0.76 0.81 0.81 0.83 0.89
0.12 0.12 0.12 0.14 0.16 0.17 0.18 0.19 0.19 0.19 0.22 0.27 0.25 0.25 0.24 0.25 0.27 0.26 0.27 0.32 0.35 0.35 0.36 0.37 0.38 0.41 0.43 0.45 0.48 0.50 0.56 0.61 0.64 0.67 0.71 0.79 0.81 0.81 0.81 0.87 0.92 0.94 0.98
0.15 0.16 0.17 0.18 0.20 0.21 0.22 0.23 0.24 0.25 0.25 0.25 0.24 0.26 0.28 0.28 0.29 0.29 0.30 0.32 0.35 0.35 0.35 0.37 0.39 0.40 0.41 0.42 0.47 0.54 0.58 0.57 0.59 0.66 0.71 0.81 0.89 0.91 0.91 0.93 0.93 0.96 1.00